ONEWEB-0136 (47282 NORAD) Tracking and Keplerian Element Data

This shows tracking and keplerian element data for the satellite.

Feedback or suggestion? Click here.




ElementValue
Catalog47282
NameONEWEB-0136
Epoch Orbit176
Epoch Day15.91667824
Epoch Year2021
RAAN29.6292
Inclination87.4298
Eccentricity0.00089
Argument of Perigee149.5667
Mean Anonmoly336.8389
Mean Motion15.17597412
Decay Rate-0.01368586
L11 47282U 20100AA 21015.91667824 -.01368586 00000-0 -75043-1 0 9997
L22 47282 87.4298 29.6292 0008900 149.5667 336.8389 15.17597412 1764

Live tracking and technical data element details for ONEWEB-0136 (NORAD 47282). ONEWEB-0136 can be tracked NOW for your location showing map with azimuth and elevation plus other details from your city location.

Track the satellite on the map from your city or location and see movement details for azimuth, elevation, latitude, longitude, range, height, and movement on the map or in text.







IsCatalogInMostPopularTable: catalog: 47282, numindb: 9
Update: records affected: 1



GetName: 47282 ONEWEB-0136

Hit Count: updated at: Sun, 17 Jan 2021 10:05:47 GMT